TECHSAT 1B (GO-32)

Last updated on Thu Nov 21 2024 00:02:26 GMT+0000 (Coordinated Universal Time)

1 25397U 98043D 24325.35180061 .00000220 00000+0 11566-3 0 9995 2 25397 98.9452 294.5842 0002356 76.9851 283.1590 14.24192582369645
UTC large
Height (km)
Speed (km/s)
/
Latitude / Longitude
Inclination (degrees)
Orbital Period (minutes)
Azimuth
Elevation
Range (km)
Doppler Factor

Next 0 passes for location: London (51.5072 / 0.1276)

Sorry there are no passes over London.